Location: B?ogocice
(50.2413°N, 20.2361°E)
Time: 23:20:43
(UTC+00:00)

BlueWalker 3 - Pass Details

Date: 15 June 2024
Orbit: 480 x 491 km, 53.2° (Epoch: 18 July)

Event Time Altitude Azimuth Distance (km) Brightness Sun altitude
Rises 01:08:54 0° 284° (WNW) 2,539 5.3 -9.4°
Reaches altitude 10° 01:11:06 10° 288° (WNW) 1,660 4.4 -9.2°
Maximum altitude 01:14:47 55° 8° (N) 582 2.6 -8.8°
Drops below altitude 10° 01:18:28 10° 87° (E) 1,661 5.2 -8.5°
Sets 01:20:40 0° 92° (E) 2,541 6.0 -8.3°
